• en France
  • Liste des pays
  • À 7 jours
  • Température de l'eau
  • Carte satellitaire
  • Carte météo
  • Widgets météo
  • user-avatar
    Se connecter

    Météo par heure à Algérie

    Ce jour, 18 Septembre, Mardi

    Heure Température Précipitation Vent Pression Humidité
    00:00 +28°C° 0 mm 5 m/s 750 mmHg 59%
    01:00 +28°C° 0 mm 5 m/s 750 mmHg 58%
    02:00 +28°C° 0 mm 5 m/s 749 mmHg 57%
    03:00 +28°C° 0 mm 4 m/s 749 mmHg 56%
    04:00 +27°C° 0 mm 4 m/s 749 mmHg 57%
    05:00 +27°C° 0 mm 4 m/s 749 mmHg 58%
    06:00 +27°C° 0 mm 3 m/s 749 mmHg 60%
    07:00 +29°C° 0 mm 3 m/s 749 mmHg 52%
    08:00 +31°C° 0 mm 3 m/s 749 mmHg 45%
    09:00 +32°C° 0 mm 2 m/s 749 mmHg 38%
    10:00 +34°C° 0 mm 3 m/s 749 mmHg 35%
    11:00 +36°C° 0 mm 3 m/s 749 mmHg 32%
    12:00 +36°C° 0 mm 2 m/s 749 mmHg 31%
    13:00 +36°C° 0 mm 3 m/s 749 mmHg 31%
    14:00 +36°C° 0 mm 3 m/s 749 mmHg 31%
    15:00 +36°C° 0 mm 3 m/s 749 mmHg 31%
    16:00 +35°C° 0 mm 3 m/s 749 mmHg 36%
    17:00 +33°C° 0 mm 3 m/s 749 mmHg 40%
    18:00 +31°C° 0 mm 2 m/s 749 mmHg 45%
    19:00 +30°C° 0 mm 2 m/s 749 mmHg 47%
    20:00 +30°C° 0 mm 1 m/s 749 mmHg 50%
    21:00 +29°C° 0 mm 1 m/s 750 mmHg 52%
    22:00 +29°C° 0 mm 1 m/s 750 mmHg 52%
    23:00 +27°C° 0 mm 0 m/s 750 mmHg 53%

    Demain, 19 Septembre, Mercredi

    Heure Température Précipitation Vent Pression Humidité
    00:00 +26°C° 0 mm 0 m/s 750 mmHg 53%
    01:00 +26°C° 0 mm 0 m/s 750 mmHg 54%
    02:00 +26°C° 0 mm 0 m/s 750 mmHg 55%
    03:00 +27°C° 0 mm 1 m/s 750 mmHg 56%
    04:00 +27°C° 0 mm 1 m/s 750 mmHg 57%
    05:00 +27°C° 0 mm 1 m/s 750 mmHg 58%
    06:00 +27°C° 0 mm 1 m/s 750 mmHg 59%
    07:00 +28°C° 0 mm 1 m/s 750 mmHg 54%
    08:00 +30°C° 0 mm 1 m/s 751 mmHg 48%
    09:00 +31°C° 0 mm 2 m/s 751 mmHg 43%
    10:00 +32°C° 0 mm 2 m/s 751 mmHg 41%
    11:00 +34°C° 0 mm 2 m/s 751 mmHg 39%
    12:00 +35°C° 0 mm 3 m/s 751 mmHg 38%
    13:00 +34°C° 0 mm 3 m/s 751 mmHg 39%
    14:00 +34°C° 0 mm 3 m/s 750 mmHg 41%
    15:00 +34°C° 0 mm 3 m/s 750 mmHg 43%
    16:00 +33°C° 0 mm 3 m/s 750 mmHg 48%
    17:00 +30°C° 0 mm 2 m/s 750 mmHg 54%
    18:00 +29°C° 0 mm 2 m/s 750 mmHg 59%
    19:00 +28°C° 0 mm 1 m/s 751 mmHg 62%
    20:00 +28°C° 0 mm 1 m/s 751 mmHg 64%
    21:00 +25°C° 0 mm 0 m/s 751 mmHg 67%
    22:00 +27°C° 0 mm 1 m/s 751 mmHg 69%
    23:00 +26°C° 0 mm 1 m/s 751 mmHg 70%

    Après-demain, 20 Septembre, Jeudi

    Heure Température Précipitation Vent Pression Humidité
    00:00 +26°C° 0 mm 1 m/s 751 mmHg 72%
    01:00 +26°C° 0 mm 1 m/s 751 mmHg 74%
    02:00 +25°C° 0 mm 1 m/s 750 mmHg 76%
    03:00 +25°C° 0 mm 1 m/s 750 mmHg 78%
    04:00 +25°C° 0 mm 1 m/s 750 mmHg 80%
    05:00 +24°C° 0 mm 1 m/s 750 mmHg 81%
    06:00 +24°C° 0 mm 1 m/s 750 mmHg 83%
    07:00 +26°C° 0 mm 1 m/s 751 mmHg 75%
    08:00 +27°C° 0 mm 1 m/s 751 mmHg 68%
    09:00 +28°C° 0 mm 1 m/s 751 mmHg 61%
    10:00 +29°C° 0 mm 2 m/s 751 mmHg 56%
    11:00 +30°C° 0 mm 2 m/s 751 mmHg 52%
    12:00 +31°C° 0 mm 3 m/s 751 mmHg 48%
    13:00 +31°C° 0 mm 3 m/s 750 mmHg 49%
    14:00 +31°C° 0 mm 3 m/s 750 mmHg 51%
    15:00 +31°C° 0 mm 3 m/s 749 mmHg 53%
    16:00 +29°C° 0 mm 3 m/s 749 mmHg 58%
    17:00 +28°C° 0 mm 3 m/s 750 mmHg 63%
    18:00 +27°C° 0 mm 3 m/s 750 mmHg 69%
    19:00 +27°C° 0 mm 2 m/s 750 mmHg 71%
    20:00 +26°C° 0 mm 2 m/s 750 mmHg 74%
    21:00 +26°C° 0 mm 2 m/s 750 mmHg 77%
    22:00 +25°C° 0 mm 2 m/s 750 mmHg 79%
    23:00 +25°C° 0 mm 1 m/s 750 mmHg 80%

    21 Septembre, Vendredi

    Heure Température Précipitation Vent Pression Humidité
    00:00 +25°C° 0 mm 1 m/s 750 mmHg 82%
    01:00 +24°C° 0 mm 1 m/s 749 mmHg 83%
    02:00 +24°C° 0 mm 1 m/s 749 mmHg 85%
    03:00 +24°C° 0 mm 1 m/s 749 mmHg 86%
    04:00 +24°C° 0 mm 1 m/s 749 mmHg 86%
    05:00 +23°C° 0 mm 1 m/s 749 mmHg 86%
    06:00 +23°C° 0 mm 1 m/s 749 mmHg 86%
    07:00 +25°C° 0 mm 1 m/s 750 mmHg 76%
    08:00 +26°C° 0 mm 1 m/s 750 mmHg 66%
    09:00 +28°C° 0 mm 1 m/s 750 mmHg 56%
    10:00 +29°C° 0 mm 1 m/s 750 mmHg 52%
    11:00 +30°C° 0 mm 2 m/s 750 mmHg 47%
    12:00 +31°C° 0 mm 3 m/s 750 mmHg 42%
    13:00 +31°C° 0 mm 3 m/s 750 mmHg 43%
    14:00 +31°C° 0 mm 3 m/s 750 mmHg 44%
    15:00 +31°C° 0 mm 3 m/s 749 mmHg 44%
    16:00 +30°C° 0 mm 3 m/s 750 mmHg 49%
    17:00 +28°C° 0 mm 2 m/s 750 mmHg 53%
    18:00 +27°C° 0 mm 2 m/s 750 mmHg 58%
    19:00 +27°C° 0 mm 2 m/s 750 mmHg 61%
    20:00 +26°C° 0 mm 1 m/s 751 mmHg 65%
    21:00 +26°C° 0 mm 1 m/s 751 mmHg 68%
    22:00 +25°C° 0 mm 1 m/s 751 mmHg 68%
    23:00 +25°C° 0 mm 1 m/s 751 mmHg 68%

    22 Septembre, Samedi

    Heure Température Précipitation Vent Pression Humidité
    00:00 +25°C° 0 mm 1 m/s 751 mmHg 69%
    01:00 +24°C° 0 mm 1 m/s 751 mmHg 67%
    02:00 +24°C° 0 mm 1 m/s 751 mmHg 66%
    03:00 +24°C° 0 mm 1 m/s 751 mmHg 65%
    04:00 +24°C° 0 mm 1 m/s 752 mmHg 65%
    05:00 +24°C° 0 mm 1 m/s 752 mmHg 64%
    06:00 +24°C° 0 mm 2 m/s 752 mmHg 64%
    07:00 +25°C° 0 mm 2 m/s 752 mmHg 58%
    08:00 +27°C° 0 mm 2 m/s 753 mmHg 53%
    09:00 +29°C° 0 mm 3 m/s 753 mmHg 47%
    10:00 +30°C° 0 mm 3 m/s 753 mmHg 44%
    11:00 +31°C° 0 mm 3 m/s 753 mmHg 40%
    12:00 +33°C° 0 mm 3 m/s 753 mmHg 37%
    13:00 +33°C° 0 mm 3 m/s 753 mmHg 37%
    14:00 +33°C° 0 mm 4 m/s 752 mmHg 38%
    15:00 +33°C° 0 mm 4 m/s 752 mmHg 38%
    16:00 +32°C° 0 mm 4 m/s 752 mmHg 45%
    17:00 +30°C° 0 mm 4 m/s 753 mmHg 51%
    18:00 +28°C° 0 mm 4 m/s 753 mmHg 58%
    19:00 +27°C° 0 mm 3 m/s 753 mmHg 63%
    20:00 +27°C° 0 mm 3 m/s 753 mmHg 67%
    21:00 +26°C° 0 mm 2 m/s 754 mmHg 71%
    22:00 +26°C° 0 mm 2 m/s 754 mmHg 71%
    23:00 +26°C° 0 mm 2 m/s 753 mmHg 70%

    23 Septembre, Dimanche

    Heure Température Précipitation Vent Pression Humidité
    00:00 +25°C° 0 mm 2 m/s 753 mmHg 69%
    01:00 +25°C° 0 mm 2 m/s 753 mmHg 67%
    02:00 +25°C° 0 mm 2 m/s 753 mmHg 65%
    03:00 +25°C° 0 mm 2 m/s 753 mmHg 63%
    04:00 +25°C° 0 mm 2 m/s 753 mmHg 61%
    05:00 +25°C° 0 mm 2 m/s 753 mmHg 60%
    06:00 +25°C° 0 mm 2 m/s 753 mmHg 58%
    07:00 +27°C° 0 mm 2 m/s 753 mmHg 50%
    08:00 +29°C° 0 mm 2 m/s 753 mmHg 43%
    09:00 +31°C° 0 mm 2 m/s 753 mmHg 35%
    10:00 +32°C° 0 mm 2 m/s 753 mmHg 31%
    11:00 +35°C° 0 mm 2 m/s 753 mmHg 28%
    12:00 +36°C° 0 mm 2 m/s 752 mmHg 24%
    13:00 +36°C° 0 mm 3 m/s 752 mmHg 24%
    14:00 +36°C° 0 mm 3 m/s 751 mmHg 25%
    15:00 +36°C° 0 mm 3 m/s 751 mmHg 26%
    16:00 +34°C° 0 mm 3 m/s 751 mmHg 30%
    17:00 +33°C° 0 mm 3 m/s 751 mmHg 34%
    18:00 +30°C° 0 mm 2 m/s 751 mmHg 39%
    19:00 +30°C° 0 mm 2 m/s 751 mmHg 40%
    20:00 +29°C° 0 mm 2 m/s 751 mmHg 42%
    21:00 +29°C° 0 mm 1 m/s 751 mmHg 43%
    22:00 +28°C° 0 mm 1 m/s 751 mmHg 43%
    23:00 +28°C° 0 mm 1 m/s 751 mmHg 42%
    Voir plus